Weather in Bormio

Italy     46°27′56″N   10°22′09″E
temp.,
°C
wind,
m/s
gust,
m/s
humid.,
%
clouds,
%
prec.,
mm/h
press.,
hPa
HPBL,
m
13 april, tue
tue1323:00−10n5696100 1.4 1026254
02:00−12n5697100 1.9 1028185
05:00−16n559980 0.1 103172
08:00−15n569899 0.1 1031158
11:00−9n567798 0.0 1026854
14:00−7n4578100 0.1 10241071
17:00−6n457499 0.2 10231063
20:00−13nnw439019 0.3 103019
14 april, wed
wed1423:00−18nnw3310090 0.0 103722
02:00−19nnw3310099 0.1 103726
05:00−21nnw33100100 0.0 103827
08:00−16nnw3310094 0.1 103460
11:00−10nne21584 0.0 1026441
14:00−7n115296 0.0 10231017
17:00−5n226399 0.2 1020921
20:00−9n3391100 0.6 102434
15 april, thu
thu1523:00−14nnw229991 0.4 103022
02:00−15nnw2210098 0.4 103124
05:00−15nnw2299100 0.0 103022
08:00−12n2296100 0.3 1027104
11:00−9nne227297 0.2 1024731
14:00−7n2255100 0.5 1021948
17:00−5n236245 0.6 1020922
20:00−13nnw228316 0.7 102610
16 april, fri
fri1623:00−18nw119548 0.0 103211
02:00−18nw119729 0.0 103211
05:00−18wnw119621 0.0 103110
08:00−12nnw118916 0.0 102628
11:00−7sse116141 0.0 1019659
14:00−5ssw117092 0.2 1017753
17:00−4nne016353 0.4 1016741
20:00−9wnw018780 0.6 101810
17 april, sat
sat1723:00−10n119872 0.3 102314
02:00−14nnw2210090 0.3 102512
05:00−13nnw2210099 0.0 102460
08:00−10n2210099 0.1 1021131
11:00−6n228020 0.0 1016454
14:00−3n117746 0.3 1014609
17:00−2n227868 0.4 1012594
20:00−6nne2296100 1.1 101628